CAL62 EDDF-RCTP

Flight info

Callsign CAL62
Flight time N/A
Altitude 31000
Route SULUS4D/07C SULUS Z650 VEMUT DCT BUDEX DCT MAREG DCT ALAMU DCT BUDOP DCT IRLOX/N0487F330 DCT OPT DCT LUGEB DCT UDROS DCT CRM UM11 TBN UN61 NOLGA N61 LAGAS M747 SUBUT T923 ERLEV M11 RODAR A909 NINOP/N0492F350 A909 LEMOD N644 DI A466 SULOM M890 LKN A201 LSO/N0485F370 A599 LINSO/K0898S1130 A599 POU B330 TAMOT/N0479F370 B330 BIGEX DCT DALOL V631 ENVAR M750 TONGA TONGA1B
Aircraft B77W/H-SDE1E2E3FGHIJ2J3J5M1P2RWY/LB1D1

Departure

Time 2026-05-01 15:02
Airport Frankfurt Main Airport (EDDF)

Arrival

Time N/A
Airport Taiwan Taoyuan International Airport (RCTP)
Time Latitude Longitude Altitude Speed Heading
2026-05-01 14:24 50.02988 8.57578 361 ft 0 kts 25°
2026-05-01 14:45 50.02985 8.57577 367 ft 2 kts 25°
2026-05-01 14:45 50.02951 8.57552 364 ft 3 kts 24°
2026-05-01 14:45 50.02934 8.57540 367 ft 3 kts 25°
2026-05-01 14:46 50.02917 8.57528 367 ft 3 kts
2026-05-01 14:46 50.02891 8.57551 366 ft 2 kts 289°
2026-05-01 14:46 50.02887 8.57569 366 ft 3 kts 285°
2026-05-01 14:47 50.02883 8.57599 361 ft 3 kts 274°
2026-05-01 14:47 50.02883 8.57631 358 ft 3 kts 267°
2026-05-01 14:47 50.02883 8.57657 359 ft 1 kts 271°
2026-05-01 14:48 50.02883 8.57660 357 ft 0 kts 272°
2026-05-01 14:51 50.02884 8.57650 357 ft 2 kts 272°
2026-05-01 14:51 50.02893 8.57551 362 ft 7 kts 289°
2026-05-01 14:52 50.02946 8.57366 364 ft 11 kts 295°
2026-05-01 14:52 50.02980 8.57250 360 ft 12 kts 295°
2026-05-01 14:52 50.03051 8.57011 363 ft 12 kts 295°
2026-05-01 14:53 50.03112 8.56926 365 ft 12 kts 335°
2026-05-01 14:53 50.03190 8.56880 361 ft 12 kts 339°
2026-05-01 14:53 50.03265 8.56823 364 ft 12 kts 308°
2026-05-01 14:53 50.03253 8.56692 360 ft 13 kts 248°
2026-05-01 14:54 50.03220 8.56556 361 ft 13 kts 249°
2026-05-01 14:54 50.03187 8.56419 359 ft 13 kts 249°
2026-05-01 14:54 50.03155 8.56283 360 ft 13 kts 250°
2026-05-01 14:54 50.03123 8.56147 353 ft 13 kts 250°
2026-05-01 14:55 50.03091 8.56011 355 ft 13 kts 250°
2026-05-01 14:55 50.03058 8.55875 357 ft 13 kts 249°
2026-05-01 14:55 50.03026 8.55741 359 ft 13 kts 249°
2026-05-01 14:55 50.02993 8.55606 357 ft 13 kts 250°
2026-05-01 14:56 50.02961 8.55470 354 ft 13 kts 250°
2026-05-01 14:56 50.02928 8.55334 357 ft 13 kts 249°
2026-05-01 14:56 50.02896 8.55200 356 ft 13 kts 249°
2026-05-01 14:56 50.02863 8.55062 352 ft 13 kts 249°
2026-05-01 14:57 50.02831 8.54931 348 ft 12 kts 250°
2026-05-01 14:57 50.02911 8.54776 354 ft 9 kts 313°
2026-05-01 14:57 50.02934 8.54729 354 ft 0 kts 307°
2026-05-01 14:58 50.02934 8.54728 354 ft 0 kts 307°
2026-05-01 14:59 50.02938 8.54721 352 ft 3 kts 310°
2026-05-01 14:59 50.02966 8.54686 353 ft 7 kts 330°
2026-05-01 14:59 50.03021 8.54649 337 ft 10 kts 338°
2026-05-01 14:59 50.03090 8.54609 349 ft 11 kts 340°
2026-05-01 15:00 50.03242 8.54522 348 ft 13 kts 340°
2026-05-01 15:00 50.03328 8.54471 351 ft 13 kts 339°
2026-05-01 15:00 50.03416 8.54421 356 ft 13 kts 340°
2026-05-01 15:01 50.03473 8.54399 356 ft 7 kts 15°
2026-05-01 15:01 50.03499 8.54455 353 ft 2 kts 70°
2026-05-01 15:01 50.03499 8.54456 353 ft 0 kts 70°
2026-05-01 15:01 50.03517 8.54532 356 ft 20 kts 70°
2026-05-01 15:02 50.03644 8.55058 356 ft 88 kts 70°
2026-05-01 15:02 50.03825 8.55817 364 ft 132 kts 70°
2026-05-01 15:02 50.04365 8.58051 486 ft 184 kts 70°
2026-05-01 15:02 50.04808 8.59946 1170 ft 185 kts 73°
2026-05-01 15:03 50.05222 8.61832 1742 ft 190 kts 73°
2026-05-01 15:03 50.05664 8.63750 2241 ft 188 kts 72°
2026-05-01 15:03 50.06133 8.65764 2387 ft 207 kts 75°
2026-05-01 15:03 50.06608 8.67960 2673 ft 219 kts 73°
2026-05-01 15:04 50.07084 8.70211 3156 ft 220 kts 78°
2026-05-01 15:04 50.07126 8.72566 3421 ft 226 kts 102°
2026-05-01 15:04 50.06800 8.75056 3620 ft 242 kts 101°
2026-05-01 15:04 50.06507 8.77682 4081 ft 250 kts 102°
2026-05-01 15:05 50.06203 8.80384 4633 ft 255 kts 103°
2026-05-01 15:05 50.05894 8.83122 5250 ft 260 kts 103°
2026-05-01 15:05 50.05677 8.85938 5815 ft 266 kts 94°
2026-05-01 15:05 50.05708 8.88843 6417 ft 271 kts 90°
2026-05-01 15:06 50.05795 8.91793 7033 ft 274 kts 90°
2026-05-01 15:06 50.05880 8.94751 7694 ft 274 kts 90°
2026-05-01 15:06 50.05953 8.97728 8278 ft 276 kts 91°
2026-05-01 15:06 50.06017 9.00731 8865 ft 279 kts 90°
2026-05-01 15:07 50.06076 9.03760 9477 ft 281 kts 91°
2026-05-01 15:07 50.06129 9.06808 10071 ft 284 kts 91°
2026-05-01 15:07 50.06181 9.09898 10562 ft 289 kts 91°
2026-05-01 15:07 50.06228 9.13104 10773 ft 306 kts 91°
2026-05-01 15:08 50.06278 9.16529 10937 ft 326 kts 91°
2026-05-01 15:08 50.06329 9.20161 11108 ft 346 kts 90°
2026-05-01 15:08 50.06384 9.24000 11447 ft 360 kts 90°
2026-05-01 15:08 50.06436 9.27924 12041 ft 366 kts 90°
2026-05-01 15:09 50.06489 9.31934 12665 ft 373 kts 90°
2026-05-01 15:09 50.06543 9.35985 13452 ft 375 kts 90°
2026-05-01 15:09 50.06596 9.40056 14256 ft 378 kts 90°
2026-05-01 15:09 50.06648 9.44175 14857 ft 383 kts 90°
2026-05-01 15:10 50.06697 9.48344 15509 ft 387 kts 90°
2026-05-01 15:10 50.06793 9.56801 16804 ft 396 kts 90°
2026-05-01 15:10 50.06840 9.61088 17497 ft 398 kts 90°
2026-05-01 15:11 50.06887 9.65403 18187 ft 401 kts 90°
2026-05-01 15:11 50.06972 9.74155 19421 ft 406 kts 90°
2026-05-01 15:11 50.07012 9.78574 19934 ft 411 kts 90°
2026-05-01 15:12 50.07050 9.83043 20481 ft 414 kts 89°
2026-05-01 15:12 50.07125 9.91997 21828 ft 415 kts 89°
2026-05-01 15:12 50.07160 9.96496 22397 ft 417 kts 89°
2026-05-01 15:13 50.07255 10.10191 23896 ft 429 kts 89°
2026-05-01 15:14 50.07312 10.19608 24550 ft 440 kts 89°
2026-05-01 15:14 50.07337 10.24379 24991 ft 442 kts 89°
2026-05-01 15:14 50.07384 10.34017 25822 ft 447 kts 89°
2026-05-01 15:15 50.07425 10.43786 26541 ft 454 kts 89°
2026-05-01 15:15 50.07458 10.53652 27253 ft 460 kts 89°
2026-05-01 15:16 50.07485 10.63650 28029 ft 465 kts 89°
2026-05-01 15:16 50.07388 10.73767 28650 ft 471 kts 97°
2026-05-01 15:17 50.05463 10.83588 29276 ft 478 kts 109°
2026-05-01 15:18 50.02153 10.98293 30266 ft 481 kts 107°
2026-05-01 15:18 50.01107 11.03217 30679 ft 479 kts 107°
2026-05-01 15:19 49.97985 11.17994 31302 ft 484 kts 107°
2026-05-01 15:19 49.94822 11.32776 31343 ft 477 kts 107°
2026-05-01 15:20 49.91791 11.47478 31368 ft 476 kts 103°
2026-05-01 15:21 49.90069 11.57393 31377 ft 476 kts 103°
2026-05-01 15:21 49.88297 11.67299 31393 ft 476 kts 101°
2026-05-01 15:22 49.86872 11.82476 31424 ft 475 kts 95°
2026-05-01 15:22 49.86001 11.92628 31435 ft 475 kts 96°
2026-05-01 15:23 49.85088 12.02761 31429 ft 475 kts 96°
2026-05-01 15:23 49.84153 12.12889 31418 ft 475 kts 96°
2026-05-01 15:24 49.83214 12.23009 31368 ft 474 kts 96°
2026-05-01 15:24 49.82286 12.33114 31378 ft 474 kts 96°
2026-05-01 15:25 49.81099 12.43146 31363 ft 476 kts 105°
2026-05-01 15:25 49.78356 12.52502 31374 ft 481 kts 120°
2026-05-01 15:26 49.74538 12.61017 31371 ft 482 kts 122°
2026-05-01 15:26 49.70675 12.69476 31379 ft 482 kts 122°
2026-05-01 15:27 49.67478 12.76538 31380 ft 483 kts 122°
2026-05-01 15:28 49.61727 12.89297 31368 ft 483 kts 122°
2026-05-01 15:28 49.57887 12.97797 31376 ft 483 kts 122°
2026-05-01 15:29 49.52105 13.10537 31375 ft 483 kts 122°
2026-05-01 15:30 49.44375 13.27468 31373 ft 484 kts 122°
2026-05-01 15:31 49.32734 13.52766 31369 ft 484 kts 121°
2026-05-01 15:32 49.24933 13.69589 31365 ft 484 kts 122°
2026-05-01 15:34 49.13216 13.94659 31364 ft 484 kts 121°